GFSSW_sfc_temp_159.txt.gz
Temp
61 61 60 60 60 60 60 60 60 60 61 61 61 62 62 61 61 71 71 78 78 71 71 81 87 87 89 87 92 93 78 76 80 84 89 100 93 100 103 99 100 102 101 99 101
60 60 60 60 60 60 60 60 60 60 60 61 61 61 61 61 66 69 79 75 71 71 78 78 81 85 82 84 88 83 76 79 89 92 92 98 95 95 91 92 95 97 99 97 100
59 60 60 60 60 59 59 59 60 60 60 60 60 60 60 64 67 79 70 71 70 72 78 84 85 86 80 86 85 83 75 86 89 93 96 93 93 97 92 89 95 94 98 98 98
59 59 59 59 59 59 59 59 59 60 60 60 59 59 60 67 64 79 70 70 71 78 77 79 81 78 77 77 86 78 84 86 88 93 91 87 93 90 91 93 100 101 100 96 96
59 59 59 59 59 58 58 58 59 59 59 59 59 59 63 66 71 83 71 72 79 80 78 79 77 77 73 79 82 80 82 86 88 90 91 90 86 88 90 96 99 98 97 96 96
58 58 58 58 58 58 58 58 58 58 58 59 59 59 61 58 85 84 82 82 82 81 80 82 80 83 79 79 79 84 83 84 86 87 87 84 84 87 89 94 94 95 95 96 97
57 57 57 57 58 58 58 57 57 57 58 59 60 61 61 68 85 84 83 83 85 83 79 84 85 81 81 76 84 81 76 81 81 83 82 85 78 80 89 91 89 91 92 94 96
57 57 57 57 57 58 58 58 57 58 59 60 61 65 60 84 86 81 83 81 82 84 82 85 86 80 78 82 79 72 74 67 78 80 81 81 69 82 88 87 87 89 91 92 95
57 57 57 57 57 57 57 57 57 59 60 61 63 65 65 73 73 81 82 77 80 80 80 80 78 73 75 69 67 70 62 67 71 83 79 76 70 76 85 88 85 87 89 91 94
57 56 56 56 56 56 56 55 61 60 62 71 72 60 70 72 78 79 82 80 75 75 72 70 71 67 68 67 56 62 65 68 68 79 79 75 72 78 82 86 85 87 88 89 92
57 56 56 56 56 55 58 77 70 65 69 69 74 71 75 79 82 77 79 75 75 71 62 68 62 60 66 68 70 69 68 69 74 79 76 75 75 77 80 80 83 83 84 88 91
56 56 56 55 55 55 61 71 69 68 58 72 74 75 79 79 68 74 82 67 67 62 67 65 59 68 73 72 69 67 64 65 74 77 75 73 73 78 81 81 83 83 83 86 90
55 55 55 55 55 59 72 69 76 75 60 69 76 72 73 75 67 70 76 71 66 63 65 62 68 73 69 66 65 65 63 64 65 73 76 70 67 72 80 83 85 86 85 86 88
55 55 55 55 57 76 74 75 78 75 55 66 66 71 73 74 65 78 79 71 68 62 66 66 73 69 67 64 66 59 70 68 65 65 59 70 55 68 74 77 80 82 84 85 87
54 55 54 53 65 72 72 78 77 70 42 69 69 80 76 68 72 73 80 72 62 64 62 60 64 64 63 65 69 62 70 67 66 63 63 64 60 66 76 73 77 81 84 85 88
54 55 54 70 73 76 78 77 70 52 44 61 68 65 66 70 70 74 73 75 73 65 66 65 72 68 66 67 70 70 66 65 66 63 51 59 61 63 70 74 79 84 85 86 88
54 54 55 69 69 79 77 70 52 47 68 58 59 64 63 61 63 66 64 63 59 50 52 59 61 69 69 58 66 65 57 44 44 48 48 64 60 64 76 81 83 83 85 88 89
53 52 62 74 79 77 71 59 42 57 59 65 61 59 53 59 61 61 57 55 64 60 52 48 45 59 66 59 56 61 57 49 38 45 53 64 56 65 78 82 82 86 87 88 90
51 73 73 78 77 74 62 49 51 54 59 55 55 49 52 58 54 54 54 56 61 61 41 42 47 61 60 65 63 57 54 65 56 58 52 61 66 74 79 79 81 81 84 84 86
59 67 72 76 76 68 56 48 55 60 58 55 44 50 44 49 49 49 49 59 56 55 55 47 37 57 51 53 55 58 62 50 55 39 39 57 60 63 69 72 77 79 81 81 82
61 64 72 78 75 60 50 53 54 59 57 50 46 44 47 46 49 49 51 59 58 49 50 42 40 50 57 48 50 58 49 51 57 57 48 48 59 71 70 75 75 78 77 74 80
62 56 75 75 57 62 53 53 52 55 57 52 51 44 39 42 44 43 46 49 55 48 44 43 41 36 44 53 62 64 58 52 45 44 57 53 46 71 74 75 76 70 68 66 69
57 62 75 71 51 52 55 53 55 52 51 49 45 48 47 36 33 40 45 53 54 47 41 41 38 34 37 53 54 53 59 60 59 58 50 51 50 67 70 71 70 65 64 63 64
59 53 62 64 63 52 49 49 49 56 52 51 49 50 37 41 48 43 49 50 52 52 46 49 37 39 37 41 45 46 55 57 58 47 47 52 57 61 63 63 60 61 59 62 62
61 55 57 48 51 52 53 51 48 46 52 52 47 45 40 35 44 47 48 50 54 52 45 42 34 43 44 47 47 43 49 57 52 57 49 57 56 59 62 58 57 59 59 62 62
54 51 55 49 53 52 51 49 45 46 45 44 42 45 44 39 41 42 49 48 46 53 49 46 35 37 35 45 47 45 48 57 58 60 59 62 57 51 61 60 56 56 59 61 61
57 58 52 46 51 51 50 48 45 43 46 49 47 43 42 46 52 52 53 53 52 48 45 41 36 35 32 40 43 37 50 58 60 62 62 57 63 54 57 55 54 57 59 59 61

GFSSW_sfc_temp_162.txt.gz
Temp
61 61 60 60 60 60 60 60 60 60 60 60 61 61 61 61 60 67 67 75 79 72 72 80 82 85 86 82 86 89 73 71 75 78 84 96 94 100 103 98 101 102 101 99 103
60 60 60 60 60 60 60 60 60 60 60 61 61 60 60 60 61 64 76 75 74 73 78 77 76 83 79 81 82 79 73 74 84 87 86 92 94 97 95 94 95 99 101 101 100
59 59 59 59 59 59 59 59 59 60 60 60 60 60 60 62 62 77 71 71 72 73 80 80 81 80 77 81 81 79 73 81 85 88 91 91 92 98 94 88 93 94 98 98 98
59 59 59 59 59 59 58 59 59 59 60 60 59 59 60 62 62 77 72 73 72 79 77 75 74 73 72 74 82 75 81 83 85 88 89 88 93 91 93 93 100 100 102 99 96
58 59 59 58 58 58 58 58 58 59 59 59 59 59 61 62 66 87 73 74 80 78 75 73 71 73 70 76 80 77 80 85 87 87 87 89 87 89 90 97 99 100 99 95 95
58 58 58 58 58 58 58 58 58 58 58 58 60 59 59 54 85 84 85 84 81 81 79 79 76 80 76 76 75 80 81 82 85 85 87 83 85 88 89 95 95 96 95 95 95
57 57 57 57 57 57 57 57 57 58 58 59 60 62 59 63 88 89 87 82 85 82 78 83 84 78 79 73 81 80 73 79 81 83 81 85 78 80 89 92 91 92 93 95 94
57 57 57 57 57 57 57 57 57 57 59 60 61 64 57 84 87 85 85 83 85 86 83 85 86 80 76 80 76 73 73 66 77 80 83 81 69 82 89 87 87 89 91 92 94
57 56 56 56 57 57 56 56 57 58 60 61 60 62 62 77 76 83 84 78 82 82 81 83 79 72 73 66 63 67 61 65 69 80 80 77 70 80 87 86 84 86 88 90 91
57 56 56 56 56 56 56 55 60 61 64 70 69 61 68 72 82 82 85 82 77 77 73 72 69 63 65 62 53 58 61 65 65 75 77 74 74 79 84 83 82 84 86 88 89
56 56 55 56 56 55 57 69 72 65 66 67 73 68 77 84 85 79 82 77 75 71 62 68 59 55 62 65 66 66 65 64 71 77 74 73 73 78 81 82 80 82 84 85 87
56 56 56 56 55 55 60 69 71 71 60 72 72 73 78 80 71 78 84 70 66 60 66 63 56 65 69 69 67 65 62 62 69 75 74 73 72 79 82 79 80 81 83 84 85
55 55 55 55 55 61 69 74 80 78 59 65 75 76 76 80 71 72 78 73 65 62 62 59 64 71 68 66 64 64 62 62 62 70 73 71 67 73 80 83 83 82 84 85 83
55 55 55 55 61 73 73 80 81 78 51 62 70 73 76 74 67 79 80 73 67 60 63 63 70 67 66 64 67 58 68 67 65 62 56 70 53 67 74 75 79 81 82 83 83
55 55 55 54 61 69 76 81 80 70 38 70 69 81 78 70 72 73 81 73 62 63 62 52 57 61 61 59 63 61 70 66 65 61 60 62 56 61 73 69 74 80 83 85 84
54 55 54 67 67 74 82 79 73 47 39 62 67 64 63 69 70 74 69 72 68 62 65 61 68 66 65 67 67 69 60 58 64 61 49 58 58 57 65 71 76 80 83 85 86
54 54 54 67 67 82 79 70 50 42 65 56 56 62 62 60 63 65 63 61 57 51 51 57 60 68 70 62 67 64 51 39 43 46 45 60 56 61 70 77 79 80 83 85 87
53 52 63 75 80 79 71 57 39 52 50 60 58 56 52 58 59 59 54 45 54 53 43 36 39 60 67 63 57 58 55 43 34 38 46 60 52 62 75 79 82 85 87 86 86
52 67 71 78 79 76 61 46 49 52 56 52 53 47 48 53 52 52 52 53 57 57 38 43 46 59 58 60 62 55 39 49 43 55 50 56 62 70 76 76 78 81 83 84 85
55 63 70 79 79 70 52 46 54 59 58 55 43 48 40 44 44 47 48 55 53 57 53 44 35 53 54 58 60 58 59 41 43 38 33 46 51 59 67 72 76 79 80 83 85
58 61 74 79 76 62 49 52 56 61 60 51 47 44 43 41 42 42 44 53 56 53 52 44 40 45 47 44 49 51 45 41 42 53 45 41 49 61 59 74 75 78 80 82 83
58 53 76 77 57 60 54 55 54 57 60 55 52 48 43 41 38 38 40 50 56 52 44 42 40 37 45 46 51 49 54 50 38 42 53 47 39 59 59 73 75 77 78 80 77
53 60 76 73 50 52 55 55 58 55 53 52 48 51 44 38 33 38 35 45 47 50 43 47 39 35 43 53 48 44 52 48 50 47 42 42 47 65 57 62 64 66 69 70 70
54 52 62 64 63 52 49 50 51 58 54 54 50 51 37 42 47 42 42 47 52 54 49 49 41 38 35 39 44 39 46 49 49 41 45 47 51 61 62 63 60 65 67 68 69
56 53 56 47 50 51 52 52 48 47 53 53 47 47 42 36 42 43 47 50 55 52 50 47 34 42 44 46 48 47 48 49 48 49 44 49 52 48 56 61 62 66 66 67 66
51 49 54 50 53 49 51 49 47 48 46 44 41 45 46 40 42 39 44 45 44 53 51 47 37 40 37 46 48 46 49 50 52 52 55 50 48 58 57 58 60 62 62 61 63
58 58 50 47 49 49 49 48 46 47 48 48 46 44 42 42 47 50 51 51 50 48 47 45 40 36 33 42 37 40 49 53 54 58 60 49 51 55 57 56 58 58 60 58 56

GFSSW_sfc_temp_165.txt.gz
Temp
60 60 60 60 60 60 60 60 60 60 60 60 61 61 61 60 60 56 53 63 66 69 72 72 73 73 74 68 71 69 54 55 60 64 69 78 76 88 92 89 90 92 89 92 95
60 60 60 60 60 59 59 60 60 60 60 60 60 60 60 60 53 51 65 72 73 74 72 69 67 71 64 66 66 62 54 60 69 72 71 76 81 84 83 85 85 87 93 96 96
59 59 59 59 59 59 59 59 59 60 60 60 60 60 59 59 50 64 72 72 73 73 73 72 71 67 63 68 66 63 59 68 72 76 79 79 80 85 82 76 82 82 88 93 92
59 59 59 59 59 59 58 58 59 59 60 59 59 59 60 55 51 69 72 72 72 73 72 68 65 54 55 57 69 62 69 71 73 78 77 76 79 79 78 80 89 91 89 90 89
58 58 58 58 58 58 58 58 58 58 58 58 59 59 56 49 51 72 73 73 73 73 69 65 60 57 53 61 65 64 69 74 76 76 77 79 77 77 76 85 88 88 87 88 87
58 58 58 58 58 58 57 57 57 58 58 58 59 59 52 43 72 80 74 72 75 70 69 67 64 66 61 62 62 66 69 72 75 75 77 75 77 75 81 83 85 84 84 84 85
57 57 57 57 57 57 57 57 57 57 58 59 60 59 51 49 74 75 73 72 76 76 71 74 74 69 65 61 71 69 63 68 71 72 72 73 70 73 81 81 80 82 80 83 84
57 57 57 57 57 57 57 57 57 57 58 60 60 57 45 70 71 69 73 74 78 78 76 77 77 69 66 67 67 62 61 55 65 72 74 69 62 74 79 78 77 79 80 82 80
57 56 56 56 57 57 57 56 58 59 59 60 55 52 48 74 70 76 75 74 76 77 75 81 72 63 64 56 52 54 49 53 60 71 71 69 64 73 78 75 73 76 76 78 78
57 56 56 56 57 56 56 57 61 60 60 63 63 51 58 65 77 80 78 77 73 72 69 65 59 53 52 49 41 47 49 54 56 65 69 65 66 73 73 76 75 73 78 75 77
56 56 55 56 56 55 53 52 58 53 56 57 62 57 68 77 80 76 79 75 72 65 54 60 49 46 50 55 56 56 55 55 61 68 65 64 65 70 74 75 74 72 71 74 75
56 56 56 56 56 56 51 52 64 63 53 66 66 66 71 73 64 71 78 65 62 53 58 55 48 56 61 60 58 56 53 53 60 66 64 63 64 70 73 73 75 72 70 73 74
55 55 55 55 55 55 60 65 72 68 50 58 67 67 68 71 64 66 73 68 60 55 55 50 56 64 60 58 56 56 53 55 55 62 65 61 58 62 70 75 77 77 76 73 73
55 55 55 55 55 58 60 73 71 68 39 53 66 70 73 72 64 76 76 68 61 54 56 55 62 60 58 56 59 51 62 62 60 55 47 60 45 58 62 67 74 76 75 74 74
55 55 55 55 49 53 66 73 70 60 29 64 63 78 71 62 62 64 65 59 49 47 48 45 47 51 49 52 58 51 61 56 54 48 49 53 47 53 60 63 67 74 74 75 76
55 55 54 55 55 61 69 70 62 41 32 53 61 58 56 59 61 66 66 67 62 51 53 48 57 55 56 58 57 59 54 51 48 46 37 49 49 50 56 62 67 72 71 76 77
54 54 52 56 54 69 69 58 38 33 54 50 49 54 52 52 53 55 52 50 43 37 40 49 51 60 60 51 56 56 49 34 31 32 32 52 49 52 60 67 69 69 74 76 77
53 52 55 65 64 64 59 45 32 45 48 55 53 52 46 50 49 49 46 42 51 48 40 36 34 52 60 54 47 42 44 38 26 28 36 52 43 52 66 70 73 75 74 78 78
52 55 57 66 70 64 50 35 40 47 53 49 50 43 42 47 46 44 42 42 48 44 34 35 39 54 54 57 52 46 38 45 37 42 35 37 51 60 66 68 70 72 75 74 75
47 50 57 69 68 58 44 40 47 56 55 53 40 44 35 41 39 39 40 48 46 53 47 38 32 50 53 53 53 47 53 37 32 28 26 38 42 47 53 55 66 70 72 73 74
48 49 64 70 64 50 40 46 51 59 57 49 44 41 41 38 38 38 40 41 46 48 49 43 39 42 47 44 43 42 40 40 38 36 29 31 39 51 50 53 53 58 73 68 62
47 42 65 69 48 50 46 50 52 55 55 51 49 46 39 38 35 36 35 38 47 45 40 42 36 30 40 50 52 46 43 42 31 32 38 35 37 53 54 52 55 61 69 65 64
42 48 64 63 40 41 47 49 52 51 51 48 45 46 42 35 31 39 38 46 47 44 41 42 36 26 32 42 44 37 40 45 43 41 36 33 37 52 55 53 55 57 60 62 63
44 42 50 53 51 43 42 43 45 52 51 49 46 46 38 37 41 37 41 49 48 44 49 45 35 33 26 35 41 38 44 45 39 33 36 40 46 46 47 50 53 55 59 60 62
47 43 46 38 40 43 44 45 42 42 48 47 42 41 38 32 36 37 40 44 48 48 46 40 28 37 40 43 43 41 42 44 36 39 36 46 47 46 49 51 53 55 58 60 63
44 41 44 40 44 43 43 42 41 43 41 40 37 42 39 33 35 34 36 37 38 44 43 43 34 36 33 42 44 40 43 44 47 44 42 45 47 51 54 54 54 58 59 60 62
49 50 42 40 40 39 40 41 42 44 45 46 44 37 37 40 44 44 44 43 42 39 38 38 34 30 26 39 38 33 44 46 49 52 51 43 47 51 51 53 54 53 54 53 55

GFSSW_sfc_temp_168.txt.gz
Temp
60 60 60 60 60 60 60 60 60 60 60 60 60 60 60 60 59 53 46 58 58 67 69 67 68 68 66 62 65 62 48 44 51 58 60 70 66 80 85 82 83 89 85 88 87
60 60 60 60 60 59 59 59 59 60 60 60 60 60 60 60 52 48 58 67 67 70 66 65 63 65 58 59 61 56 45 51 61 65 63 68 69 75 79 77 80 83 89 89 87
59 59 59 59 59 59 59 59 59 59 60 60 59 59 59 58 47 57 71 67 70 71 68 67 65 63 54 56 57 56 54 62 63 68 70 71 72 75 75 71 75 79 85 87 85
59 59 59 59 59 59 58 58 58 59 59 59 59 59 59 54 52 65 72 71 71 71 68 65 60 52 51 53 60 54 62 66 65 69 67 68 72 73 73 75 81 84 88 88 85
58 58 58 58 58 58 58 58 58 58 58 59 58 58 53 45 46 68 73 72 70 68 64 61 55 52 49 53 57 56 61 66 68 67 69 72 71 72 73 79 83 82 84 85 86
58 58 58 58 58 58 57 57 57 57 58 58 59 59 49 40 64 70 71 69 70 66 65 61 58 59 54 54 53 59 61 64 67 67 69 68 70 70 77 78 80 77 80 84 87
57 57 57 57 57 57 57 57 57 57 58 59 60 58 49 48 66 67 67 63 67 69 65 67 67 62 59 55 62 61 56 62 64 61 61 65 63 67 78 77 76 76 78 79 80
57 57 57 57 57 57 58 57 57 58 59 59 60 57 44 62 61 60 63 66 70 72 71 71 70 63 58 61 62 55 52 46 56 65 65 65 57 70 72 74 75 75 76 79 78
57 56 56 57 57 57 57 57 58 61 59 60 53 49 45 66 65 69 68 67 71 71 70 78 66 59 58 50 45 47 44 47 53 62 63 62 60 71 71 71 71 75 74 76 77
57 56 56 56 57 57 56 56 58 58 59 61 60 48 55 63 73 76 70 73 69 67 64 63 56 49 45 44 39 42 45 48 51 57 60 57 60 69 69 70 70 69 72 75 74
57 56 56 56 56 56 53 48 53 51 51 54 58 54 61 68 74 69 74 70 68 61 50 55 46 44 45 49 51 51 49 48 54 60 59 59 60 64 68 66 70 66 69 68 71
56 56 56 55 55 55 49 52 58 60 48 63 62 62 67 69 60 66 71 59 58 51 54 48 44 53 56 55 52 50 47 47 54 60 58 57 56 62 65 65 70 72 67 73 67
55 55 55 55 55 52 52 58 65 60 47 55 63 63 65 66 60 63 67 62 56 52 51 46 51 60 56 53 51 50 47 48 48 56 59 56 53 57 63 66 68 73 75 74 73
55 55 55 55 50 47 53 64 64 59 37 48 60 62 65 65 60 71 69 59 52 46 50 49 55 55 49 50 55 47 56 55 53 48 42 53 41 54 56 60 65 67 73 73 71
55 55 55 54 43 44 60 59 64 55 27 57 58 69 66 58 59 61 68 60 51 50 49 44 49 50 46 49 52 46 56 51 52 42 39 45 37 46 55 55 60 64 67 71 75
54 55 54 49 44 50 57 58 54 37 27 49 58 54 53 56 55 59 57 63 57 52 50 48 58 53 51 54 54 54 52 46 47 41 33 42 39 45 51 55 61 65 67 71 75
54 54 52 53 46 55 55 52 35 29 51 46 47 52 50 47 49 51 47 43 41 34 38 46 47 54 57 48 53 50 40 32 30 30 31 44 39 44 54 61 64 67 69 67 70
52 52 50 56 50 53 51 42 27 42 44 53 51 50 43 46 46 46 42 38 44 42 35 32 30 49 57 51 45 44 39 33 26 28 32 46 37 45 61 64 65 71 71 69 69
51 48 48 55 59 55 45 30 33 43 49 48 48 41 40 44 43 41 40 39 42 44 32 32 35 49 51 53 50 42 35 44 37 39 33 36 42 51 58 60 63 66 69 64 67
45 40 46 59 59 51 40 37 42 51 51 49 37 41 34 38 37 37 37 44 36 41 44 38 29 46 50 51 49 45 48 32 31 26 26 33 37 41 49 52 57 56 55 56 63
39 39 52 65 56 44 34 39 47 54 50 44 38 38 38 35 37 35 37 44 42 38 44 39 36 40 46 43 39 39 38 37 35 33 28 28 35 46 48 48 49 51 54 56 58
37 34 54 60 40 37 35 44 49 49 49 45 46 42 37 37 33 35 35 41 48 42 37 43 35 31 38 44 47 44 37 40 31 30 35 32 34 48 46 48 50 51 55 59 60
35 35 53 51 30 31 39 44 47 45 46 44 42 43 41 34 30 35 37 48 49 39 38 40 35 26 27 40 45 38 42 40 40 38 32 29 33 50 50 50 51 50 53 57 59
35 33 39 41 41 35 35 38 40 49 46 45 42 43 35 34 39 34 37 45 47 47 49 45 34 31 27 31 39 37 41 42 38 33 37 38 40 47 48 47 50 52 53 53 62
37 33 37 29 33 35 37 39 37 36 44 43 39 39 36 31 33 34 38 40 44 47 45 40 29 34 37 40 41 40 40 41 36 38 34 40 43 47 48 48 49 51 54 52 58
33 32 36 35 37 35 36 33 35 37 37 37 35 40 37 33 34 33 35 36 35 40 37 42 33 32 31 40 42 38 41 43 43 43 41 42 40 51 52 52 51 52 50 53 59
38 39 34 34 32 31 32 34 37 37 40 42 40 37 35 37 40 40 41 41 41 35 33 34 29 30 26 36 36 30 39 42 43 46 46 38 44 50 50 51 51 51 53 53 54

GFSSW_sfc_temp_171.txt.gz
Temp
60 60 60 60 60 60 60 60 60 60 60 60 60 60 60 60 59 52 45 55 55 65 68 65 65 66 64 58 61 58 44 42 48 54 56 64 61 72 79 75 79 82 83 82 81
59 60 60 60 60 59 59 59 59 59 60 60 60 60 59 60 51 46 57 63 66 67 63 62 61 63 56 58 58 53 42 48 56 65 60 65 65 68 72 72 73 79 84 82 81
59 59 59 59 59 59 59 59 59 59 59 60 59 60 60 58 45 58 69 65 68 68 65 65 64 61 51 52 55 53 51 60 57 62 62 65 68 71 69 65 72 72 78 79 78
59 59 59 59 59 59 58 58 59 59 59 59 59 59 59 53 52 62 72 68 69 66 62 60 57 52 49 50 55 49 57 62 58 64 60 60 67 68 69 72 77 78 82 80 77
58 58 59 58 58 58 58 58 58 58 58 58 58 59 51 42 45 64 72 70 67 64 60 58 52 50 46 50 53 50 54 60 63 63 62 65 64 64 68 75 76 79 80 80 79
58 58 58 58 58 58 58 58 57 57 58 58 58 59 47 41 62 66 67 66 65 61 60 57 56 55 50 51 51 55 57 60 62 60 60 62 63 65 72 75 74 74 74 78 81
57 57 57 57 57 58 58 57 57 57 58 59 59 56 48 48 63 62 62 60 64 65 60 62 62 59 55 51 57 56 52 57 57 58 57 63 58 61 71 75 71 71 74 75 81
57 57 57 57 57 57 57 57 57 58 60 59 60 56 43 60 58 58 60 62 66 67 66 66 66 58 53 57 56 50 47 40 52 58 61 63 53 67 70 71 69 72 72 74 74
57 56 56 56 57 57 56 56 57 60 60 60 52 46 43 64 61 67 64 63 66 66 65 72 61 55 54 46 42 43 38 42 49 58 58 59 56 63 69 68 67 70 70 72 71
56 56 56 56 56 56 55 55 56 57 58 60 58 46 53 61 68 70 68 67 65 63 60 59 53 47 42 41 35 38 40 43 45 53 57 55 56 61 62 66 65 67 72 70 70
56 56 55 55 56 55 52 48 52 49 49 51 55 55 59 67 70 67 70 67 64 57 48 52 44 42 43 47 49 48 46 44 50 55 52 53 55 59 61 62 62 64 65 69 70
56 56 55 55 55 54 47 49 54 57 45 60 60 60 64 65 57 63 70 56 54 48 51 46 41 51 53 52 49 47 43 43 50 56 53 52 52 58 61 62 62 63 63 64 66
55 55 55 55 54 49 46 54 59 56 44 52 60 59 61 61 57 57 63 58 52 46 45 44 49 56 53 50 47 47 44 44 44 51 53 51 47 52 58 62 65 65 66 67 68
55 55 55 54 50 43 49 58 55 55 35 46 56 59 61 62 56 65 65 58 53 45 45 43 52 52 51 48 50 42 52 51 49 44 36 49 36 48 52 56 60 65 63 66 69
54 55 54 54 43 42 57 53 56 53 25 54 55 64 61 54 55 58 67 59 43 45 46 41 43 44 44 47 51 46 52 49 47 42 38 41 34 41 51 51 55 59 62 64 66
54 54 54 47 42 46 52 52 52 36 26 47 55 52 49 52 53 57 56 59 56 44 49 46 53 47 47 53 53 53 48 43 43 41 32 39 37 41 47 51 56 59 62 65 65
54 53 51 52 47 51 51 50 34 27 48 40 44 50 46 44 47 48 45 42 35 29 31 41 45 50 51 45 51 46 37 26 29 30 29 42 37 43 50 55 59 61 63 64 65
52 52 49 54 48 51 50 41 27 39 39 49 48 47 41 44 43 43 41 36 41 38 31 27 28 44 51 46 44 41 40 28 25 26 28 42 36 41 55 60 62 64 62 66 63
51 43 47 55 55 50 44 30 31 38 44 43 44 39 39 42 40 38 37 36 39 38 29 27 32 47 50 52 48 41 35 43 35 34 29 35 42 50 54 55 57 58 61 60 60
41 37 45 61 54 48 38 36 40 49 46 45 36 38 30 36 35 35 35 42 40 42 41 35 27 42 47 49 49 45 45 33 31 23 24 31 34 40 45 48 52 51 52 53 55
37 38 51 59 51 42 30 34 43 51 48 41 36 34 36 34 35 33 35 42 43 42 42 37 32 36 43 40 36 36 35 36 34 31 27 27 32 44 46 47 47 49 51 51 51
35 35 51 52 36 33 31 38 46 46 49 45 43 40 34 34 33 33 33 40 48 42 35 40 34 29 36 45 47 43 39 36 28 27 33 29 34 48 47 48 49 50 53 52 51
37 33 48 48 27 27 35 39 43 42 42 40 38 40 40 33 28 33 35 45 47 42 37 38 33 25 29 39 45 39 41 40 39 37 32 27 31 46 47 48 50 48 50 51 53
36 31 36 36 36 29 29 33 35 45 42 42 39 41 33 34 39 33 34 43 46 44 49 43 35 28 24 30 35 35 40 40 35 29 34 35 39 45 46 47 49 47 49 50 52
34 30 33 27 29 31 31 34 33 34 40 41 39 39 33 29 32 33 38 40 42 45 43 39 32 33 35 38 38 37 38 39 35 36 32 36 37 43 46 47 48 49 49 51 52
30 30 32 30 33 31 31 30 32 34 34 34 34 36 36 31 32 30 35 34 33 39 37 35 31 33 29 38 39 37 41 42 41 41 38 38 38 49 50 50 49 51 50 50 54
35 36 33 33 29 27 28 32 33 35 38 40 37 34 34 37 40 40 41 40 39 36 35 35 27 25 25 36 34 30 38 40 41 45 43 36 42 48 47 49 50 52 50 52 52

GFSSW_sfc_temp_174.txt.gz
Temp
60 60 60 60 60 60 60 60 59 60 60 60 60 60 60 60 59 52 45 54 54 63 66 63 63 61 61 57 58 54 43 38 44 50 54 61 63 68 73 71 75 78 78 80 77
60 60 60 60 60 59 59 59 59 59 59 60 60 60 60 60 50 46 57 62 65 66 58 60 58 61 54 55 56 52 41 47 50 58 50 61 62 64 67 67 69 74 78 78 77
59 60 60 60 59 59 59 59 59 59 59 59 59 59 60 58 43 56 70 65 66 67 62 63 61 59 49 50 53 51 49 52 54 58 60 62 61 66 65 63 69 72 72 75 75
59 59 59 59 59 59 58 58 59 59 59 59 59 59 59 49 50 59 71 67 68 64 61 60 56 52 47 48 52 46 53 57 54 61 59 58 61 63 65 68 75 75 75 75 73
58 58 58 58 58 58 58 58 58 58 58 58 58 58 50 42 46 62 70 68 65 61 57 56 51 48 45 47 49 46 51 56 59 59 58 61 60 59 63 70 72 75 75 73 74
58 58 58 58 57 57 57 57 57 57 57 58 58 58 45 42 60 63 64 64 62 58 57 55 54 53 48 48 48 52 53 56 58 57 57 58 58 60 67 69 69 71 73 74 76
57 57 57 57 57 57 57 57 56 57 59 59 59 56 46 47 60 59 58 59 61 61 57 59 59 57 53 47 53 53 48 53 52 55 54 58 54 59 66 70 69 68 69 71 72
57 56 56 56 57 57 57 57 56 59 60 60 60 54 43 58 57 57 57 59 63 63 62 61 61 53 50 54 53 47 43 37 49 54 57 59 50 61 66 67 65 68 69 70 70
57 56 56 56 57 57 56 55 57 60 60 60 50 45 44 63 60 66 61 61 62 62 61 70 59 52 51 44 39 40 35 38 47 54 55 55 50 57 64 63 62 65 67 69 69
57 56 55 56 56 55 55 55 57 57 58 58 57 45 51 57 65 68 67 64 60 59 56 55 50 44 40 39 31 35 37 39 42 49 51 50 51 57 59 61 61 62 65 67 67
57 56 55 55 55 55 50 47 49 46 47 48 53 53 58 64 68 64 67 62 61 55 45 49 40 35 41 46 48 46 42 41 47 52 49 49 50 53 57 57 57 59 60 64 66
56 55 55 55 55 54 46 50 52 51 42 56 55 56 61 61 55 60 65 55 52 44 50 44 38 47 51 49 46 44 41 41 46 51 48 48 48 54 58 59 59 60 61 61 66
55 55 55 55 54 48 43 52 54 50 41 50 57 56 58 58 53 55 60 55 51 48 43 42 45 52 50 47 45 44 42 42 42 48 50 47 44 48 55 57 60 60 63 63 63
55 55 55 54 50 42 50 54 51 49 34 44 53 57 58 62 54 64 65 57 51 46 48 44 48 47 46 45 47 39 49 48 48 45 33 45 31 43 48 51 55 59 59 64 63
54 55 54 53 41 45 54 51 52 51 24 50 51 61 58 51 56 56 61 56 46 45 44 39 47 46 41 43 48 43 51 47 47 43 38 38 32 38 47 49 51 55 58 60 66
54 54 53 47 42 46 49 50 50 35 26 43 50 49 48 49 51 56 56 58 53 42 44 41 50 47 45 51 49 50 44 42 40 37 31 37 36 36 44 48 52 56 58 61 62
54 53 50 50 48 50 49 48 33 26 46 40 41 46 45 42 45 47 44 39 33 27 29 39 39 47 50 42 49 44 38 26 23 24 27 38 34 42 48 52 56 58 58 60 61
52 51 48 52 49 47 49 40 27 37 37 45 44 44 39 42 40 41 39 33 38 35 28 26 26 40 48 42 40 40 37 26 15 18 26 38 34 42 53 58 58 60 59 60 60
50 41 46 56 54 48 44 29 29 38 43 39 41 36 36 40 38 36 35 34 37 36 24 26 28 44 47 49 45 38 33 42 33 32 26 32 39 48 54 53 53 55 58 56 57
39 37 46 56 50 47 37 34 36 45 45 43 32 36 29 33 32 33 33 40 39 41 39 34 26 40 44 47 48 42 46 33 31 23 21 28 32 36 44 46 52 52 52 52 53
36 40 52 54 49 40 28 30 39 48 45 39 35 33 34 30 33 33 33 40 44 42 41 37 32 35 41 37 34 35 36 36 34 30 27 26 30 42 48 50 47 49 51 51 51
35 36 49 49 34 29 27 35 43 43 45 42 40 37 33 33 29 32 31 38 47 44 34 38 32 26 33 42 45 43 37 35 28 26 33 31 31 47 46 47 48 49 52 51 51
37 35 45 45 26 25 31 36 40 40 40 38 36 40 39 31 28 32 33 43 45 40 36 37 32 25 29 34 41 38 40 39 37 37 32 26 30 46 46 46 48 48 49 50 51
33 30 34 35 33 28 27 30 33 42 40 41 38 41 34 32 37 31 33 40 44 41 47 44 33 30 24 30 34 33 39 38 34 28 28 32 36 43 45 45 48 48 48 49 50
32 28 31 26 29 28 26 31 31 31 38 38 37 38 31 28 30 31 35 36 39 44 42 38 31 35 34 36 36 36 35 37 33 34 29 34 35 41 43 44 48 49 50 51 51
30 29 31 28 30 28 29 28 30 32 33 32 31 35 33 30 31 31 33 34 33 39 38 36 24 28 28 36 37 34 38 39 39 39 37 38 36 47 48 48 47 49 50 50 51
33 33 36 30 28 26 27 30 31 32 36 37 36 32 33 36 39 39 39 39 37 35 35 34 31 28 24 35 34 30 36 35 39 40 38 34 41 47 46 47 49 49 51 50 53